| time (UTC) | temp C | wind direction | speed KPH | gust KPH | rain 1hr cm | rain 24hr cm | rain mn cm | humidity % | barometer mb |
| 20260831172536 | 19 | 167 | 4.8 | 12.9 | 0.00 | 0.15 | 0.00 | 80 | 1018.4 |
| 20260831172036 | 19 | 238 | 3.2 | 17.7 | 0.00 | 0.15 | 0.00 | 80 | 1018.4 |
| 20260831171536 | 19 | 213 | 6.4 | 17.7 | 0.00 | 0.15 | 0.00 | 79 | 1018.5 |
| 20260831171035 | 19 | 195 | 6.4 | 9.7 | 0.00 | 0.15 | 0.00 | 79 | 1018.4 |
| 20260831170537 | 19 | 188 | 1.6 | 8.0 | 0.00 | 0.15 | 0.00 | 79 | 1018.6 |
| 20260831170036 | 19 | 194 | 1.6 | 9.7 | 0.00 | 0.15 | 0.00 | 79 | 1018.6 |
| 20260831165534 | 19 | 197 | 4.8 | 9.7 | 0.00 | 0.15 | 0.00 | 78 | 1018.6 |
| 20260831165034 | 19 | 131 | 3.2 | 12.9 | 0.00 | 0.15 | 0.00 | 78 | 1018.6 |
| 20260831164549 | 19 | 133 | 4.8 | 12.9 | 0.00 | 0.15 | 0.00 | 78 | 1018.8 |
| 20260831164034 | 19 | 184 | 6.4 | 14.5 | 0.00 | 0.15 | 0.00 | 78 | 1018.8 |
| 20260831163534 | 19 | 137 | 6.4 | 12.9 | 0.00 | 0.15 | 0.00 | 78 | 1018.6 |
| 20260831163033 | 19 | 198 | 6.4 | 11.3 | 0.00 | 0.15 | 0.00 | 78 | 1018.7 |
| 20260831162534 | 19 | 128 | 4.8 | 11.3 | 0.00 | 0.15 | 0.00 | 79 | 1018.6 |
| 20260831162036 | 18 | 134 | 3.2 | 11.3 | 0.00 | 0.15 | 0.00 | 79 | 1018.6 |
| 20260831161551 | 18 | 132 | 4.8 | 12.9 | 0.00 | 0.15 | 0.00 | 79 | 1018.7 |
| 20260831161031 | 18 | 186 | 6.4 | 12.9 | 0.00 | 0.15 | 0.00 | 79 | 1018.7 |
| 20260831160533 | 18 | 155 | 4.8 | 12.9 | 0.00 | 0.15 | 0.00 | 78 | 1018.7 |
| 20260831160034 | 18 | 157 | 6.4 | 16.1 | 0.00 | 0.15 | 0.00 | 77 | 1018.9 |
| 20260831155532 | 18 | 143 | 8.0 | 16.1 | 0.00 | 0.15 | 0.00 | 77 | 1018.8 |
| 20260831155032 | 18 | 138 | 6.4 | 12.9 | 0.00 | 0.15 | 0.00 | 77 | 1018.9 |
| 20260831154531 | 18 | 148 | 6.4 | 14.5 | 0.00 | 0.15 | 0.00 | 78 | 1019.0 |
| 20260831154031 | 18 | 132 | 6.4 | 14.5 | 0.00 | 0.15 | 0.00 | 78 | 1018.8 |
| 20260831153530 | 18 | 207 | 4.8 | 12.9 | 0.00 | 0.15 | 0.00 | 78 | 1018.9 |
| 20260831153030 | 18 | 120 | 4.8 | 14.5 | 0.00 | 0.15 | 0.00 | 78 | 1018.9 |
| 20260831152534 | 18 | 146 | 6.4 | 14.5 | 0.00 | 0.15 | 0.00 | 78 | 1018.8 |
| 20260831152029 | 18 | 135 | 6.4 | 12.9 | 0.00 | 0.15 | 0.00 | 84 | 1018.8 |
| 20260831151529 | 18 | 186 | 4.8 | 12.9 | 0.00 | 0.15 | 0.00 | 80 | 1018.9 |
| 20260831151030 | 18 | 138 | 1.6 | 8.0 | 0.00 | 0.15 | 0.00 | 82 | 1018.9 |
| 20260831150527 | 18 | 203 | 3.2 | 9.7 | 0.00 | 0.15 | 0.00 | 82 | 1019.0 |
| 20260831150028 | 18 | 147 | 1.6 | 9.7 | 0.00 | 0.15 | 0.00 | 82 | 1019.0 |
| 20260831145528 | 18 | 167 | 4.8 | 9.7 | 0.00 | 0.15 | 0.00 | 82 | 1019.0 |
| 20260831145027 | 18 | 188 | 4.8 | 11.3 | 0.00 | 0.15 | 0.00 | 81 | 1019.0 |
| 20260831144528 | 18 | 164 | 6.4 | 11.3 | 0.00 | 0.15 | 0.00 | 81 | 1019.0 |
| 20260831144027 | 18 | 168 | 4.8 | 12.9 | 0.00 | 0.15 | 0.00 | 79 | 1019.0 |
| 20260831143530 | 18 | 151 | 6.4 | 12.9 | 0.00 | 0.15 | 0.00 | 79 | 1019.0 |
| 20260831143027 | 18 | 165 | 4.8 | 9.7 | 0.00 | 0.15 | 0.00 | 81 | 1018.8 |
| 20260831142527 | 18 | 169 | 4.8 | 8.0 | 0.00 | 0.15 | 0.00 | 81 | 1018.7 |
| 20260831142026 | 18 | 175 | 3.2 | 8.0 | 0.00 | 0.15 | 0.00 | 82 | 1018.7 |
| 20260831141531 | 18 | 141 | 3.2 | 9.7 | 0.00 | 0.15 | 0.00 | 82 | 1018.8 |
| 20260831141024 | 18 | 142 | 4.8 | 11.3 | 0.00 | 0.15 | 0.00 | 83 | 1018.7 |
| 20260831140524 | 18 | 139 | 6.4 | 14.5 | 0.00 | 0.15 | 0.00 | 83 | 1018.7 |
| 20260831140023 | 18 | 135 | 8.0 | 14.5 | 0.00 | 0.15 | 0.00 | 83 | 1018.6 |
| 20260831135523 | 18 | 148 | 4.8 | 12.9 | 0.00 | 0.15 | 0.00 | 86 | 1018.5 |
| 20260831135022 | 18 | 140 | 4.8 | 9.7 | 0.00 | 0.15 | 0.00 | 87 | 1018.6 |
| 20260831134520 | 18 | 131 | 4.8 | 9.7 | 0.00 | 0.15 | 0.00 | 87 | 1018.8 |
| 20260831134021 | 17 | 136 | 3.2 | 6.4 | 0.00 | 0.15 | 0.00 | 88 | 1018.8 |
| 20260831133519 | 17 | 128 | 1.6 | 6.4 | 0.00 | 0.15 | 0.00 | 88 | 1018.9 |
| 20260831133019 | 17 | 104 | 1.6 | 4.8 | 0.00 | 0.15 | 0.00 | 88 | 1018.9 |
| 20260831132519 | 17 | 111 | 1.6 | 4.8 | 0.00 | 0.15 | 0.00 | 89 | 1019.0 |
| 20260831132020 | 17 | 99 | 1.6 | 6.4 | 0.00 | 0.15 | 0.00 | 90 | 1019.0 |
| 20260831131525 | 17 | 134 | 3.2 | 8.0 | 0.00 | 0.15 | 0.00 | 91 | 1018.9 |
| 20260831131017 | 17 | 145 | 3.2 | 8.0 | 0.00 | 0.15 | 0.00 | 91 | 1018.8 |
| 20260831130517 | 17 | 150 | 3.2 | 6.4 | 0.00 | 0.15 | 0.00 | 91 | 1018.8 |
| 20260831130023 | 17 | 132 | 1.6 | 4.8 | 0.00 | 0.15 | 0.00 | 91 | 1019.1 |
| 20260831125516 | 17 | 187 | 0.0 | 3.2 | 0.00 | 0.15 | 0.00 | 92 | 1019.1 |
| 20260831125017 | 17 | 188 | 0.0 | 3.2 | 0.00 | 0.15 | 0.00 | 92 | 1018.9 |
| 20260831124516 | 17 | 190 | 0.0 | 3.2 | 0.00 | 0.15 | 0.00 | 92 | 1018.8 |
| 20260831124015 | 17 | 190 | 0.0 | 1.6 | 0.00 | 0.15 | 0.00 | 92 | 1018.8 |
| 20260831123514 | 17 | 190 | 0.0 | 1.6 | 0.00 | 0.15 | 0.00 | 92 | 1018.8 |
| 20260831123021 | 17 | 190 | 0.0 | 0.0 | 0.00 | 0.15 | 0.00 | 92 | 1018.9 |
| 20260831122514 | 17 | 190 | 0.0 | 3.2 | 0.00 | 0.15 | 0.00 | 92 | 1019.0 |
| 20260831122015 | 16 | 190 | 0.0 | 4.8 | 0.00 | 0.15 | 0.00 | 92 | 1018.9 |
| 20260831121520 | 16 | 190 | 0.0 | 3.2 | 0.00 | 0.15 | 0.00 | 92 | 1018.9 |
| 20260831121013 | 16 | 190 | 0.0 | 6.4 | 0.00 | 0.15 | 0.00 | 93 | 1018.8 |
| 20260831120517 | 16 | 192 | 3.2 | 6.4 | 0.00 | 0.15 | 0.00 | 93 | 1018.9 |
| 20260831120014 | 17 | 205 | 0.0 | 4.8 | 0.00 | 0.15 | 0.00 | 93 | 1018.9 |
| 20260831115512 | 17 | 223 | 0.0 | 3.2 | 0.00 | 0.15 | 0.00 | 93 | 1019.0 |
| 20260831115011 | 17 | 224 | 0.0 | 0.0 | 0.00 | 0.15 | 0.00 | 93 | 1019.0 |
| 20260831114510 | 16 | 224 | 0.0 | 0.0 | 0.00 | 0.15 | 0.00 | 94 | 1019.2 |
| 20260831114009 | 16 | 232 | 0.0 | 0.0 | 0.00 | 0.15 | 0.00 | 94 | 1019.2 |
| 20260831113509 | 16 | 175 | 0.0 | 0.0 | 0.00 | 0.15 | 0.00 | 94 | 1019.2 |
| 20260831113010 | 16 | 175 | 0.0 | 0.0 | 0.00 | 0.15 | 0.00 | 94 | 1019.1 |
| 20260831112507 | 16 | 175 | 0.0 | 0.0 | 0.00 | 0.15 | 0.00 | 94 | 1019.1 |
| 20260831112005 | 16 | 175 | 0.0 | 0.0 | 0.00 | 0.15 | 0.00 | 94 | 1019.1 |
| 20260831111505 | 16 | 175 | 0.0 | 0.0 | 0.00 | 0.15 | 0.00 | 94 | 1018.8 |
| 20260831111004 | 16 | 175 | 0.0 | 0.0 | 0.00 | 0.15 | 0.00 | 94 | 1018.8 |
| 20260831110504 | 16 | 175 | 0.0 | 0.0 | 0.00 | 0.15 | 0.00 | 94 | 1018.8 |
| 20260831110004 | 16 | 175 | 0.0 | 0.0 | 0.00 | 0.15 | 0.00 | 94 | 1018.8 |
| 20260831105507 | 16 | 175 | 0.0 | 0.0 | 0.00 | 0.15 | 0.00 | 94 | 1018.7 |
| 20260831105004 | 16 | 175 | 0.0 | 0.0 | 0.00 | 0.15 | 0.00 | 94 | 1018.5 |
| 20260831104513 | 16 | 175 | 0.0 | 0.0 | 0.00 | 0.15 | 0.00 | 94 | 1018.6 |
| 20260831104003 | 16 | 175 | 0.0 | 0.0 | 0.00 | 0.15 | 0.00 | 94 | 1018.6 |
| 20260831103503 | 16 | 198 | 0.0 | 0.0 | 0.00 | 0.15 | 0.00 | 94 | 1018.4 |
| 20260831103013 | 16 | 198 | 0.0 | 3.2 | 0.00 | 0.15 | 0.00 | 94 | 1018.3 |
| 20260831102505 | 16 | 200 | 0.0 | 3.2 | 0.00 | 0.15 | 0.00 | 94 | 1018.4 |
| 20260831102003 | 16 | 197 | 0.0 | 4.8 | 0.00 | 0.15 | 0.00 | 94 | 1018.3 |
| 20260831101503 | 16 | 193 | 1.6 | 4.8 | 0.00 | 0.15 | 0.00 | 94 | 1018.4 |
| 20260831101001 | 16 | 193 | 1.6 | 4.8 | 0.00 | 0.15 | 0.00 | 94 | 1018.3 |
| 20260831100501 | 16 | 194 | 0.0 | 4.8 | 0.00 | 0.15 | 0.00 | 94 | 1018.3 |
| 20260831100001 | 16 | 195 | 0.0 | 3.2 | 0.00 | 0.15 | 0.00 | 94 | 1018.3 |
| 20260831095501 | 16 | 195 | 0.0 | 6.4 | 0.00 | 0.15 | 0.00 | 94 | 1018.2 |
| 20260831095001 | 16 | 195 | 0.0 | 6.4 | 0.00 | 0.15 | 0.00 | 94 | 1018.2 |
| 20260831094501 | 16 | 225 | 0.0 | 0.0 | 0.00 | 0.15 | 0.00 | 94 | 1018.1 |
| 20260831094001 | 16 | 230 | 0.0 | 0.0 | 0.00 | 0.15 | 0.00 | 94 | 1018.1 |
| 20260831093601 | 16 | 230 | 0.0 | 4.8 | 0.00 | 0.15 | 0.00 | 94 | 1018.1 |
| 20260831093113 | 16 | 240 | 1.6 | 4.8 | 0.00 | 0.15 | 0.00 | 94 | 1018.1 |
| 20260831092600 | 16 | 242 | 1.6 | 4.8 | 0.00 | 0.15 | 0.00 | 94 | 1018.2 |
| 20260831092059 | 16 | 254 | 0.0 | 4.8 | 0.00 | 0.15 | 0.00 | 94 | 1018.3 |
| 20260831091602 | 16 | 274 | 0.0 | 0.0 | 0.00 | 0.15 | 0.00 | 94 | 1018.3 |
| 20260831091059 | 16 | 302 | 0.0 | 0.0 | 0.00 | 0.15 | 0.00 | 94 | 1018.1 |
| 20260831090600 | 16 | 302 | 0.0 | 0.0 | 0.00 | 0.15 | 0.00 | 94 | 1018.1 |
| 20260831090123 | 16 | 360 | 0.0 | 0.0 | 0.00 | 0.15 | 0.00 | 94 | 1018.1 |
| 20260831085559 | 16 | 274 | 0.0 | 0.0 | 0.00 | 0.15 | 0.00 | 94 | 1018.1 |
| 20260831085100 | 16 | 303 | 0.0 | 0.0 | 0.00 | 0.15 | 0.00 | 94 | 1018.0 |
| 20260831084557 | 16 | 303 | 0.0 | 0.0 | 0.00 | 0.15 | 0.00 | 94 | 1018.0 |
| 20260831084101 | 16 | 303 | 0.0 | 0.0 | 0.00 | 0.15 | 0.00 | 94 | 1018.2 |
| 20260831083557 | 16 | 303 | 0.0 | 0.0 | 0.00 | 0.15 | 0.00 | 94 | 1018.0 |
| 20260831083109 | 16 | 303 | 0.0 | 0.0 | 0.00 | 0.15 | 0.00 | 94 | 1018.0 |
| 20260831082557 | 16 | 303 | 0.0 | 0.0 | 0.00 | 0.15 | 0.00 | 94 | 1018.1 |
| 20260831082057 | 16 | 360 | 0.0 | 0.0 | 0.00 | 0.15 | 0.00 | 94 | 1018.0 |
| 20260831081601 | 16 | 360 | 0.0 | 0.0 | 0.00 | 0.15 | 0.00 | 94 | 1018.0 |
| 20260831081056 | 16 | 360 | 0.0 | 0.0 | 0.00 | 0.15 | 0.00 | 94 | 1017.9 |
| 20260831080558 | 16 | 360 | 0.0 | 0.0 | 0.00 | 0.15 | 0.00 | 94 | 1018.1 |
| 20260831080126 | 16 | 303 | 0.0 | 0.0 | 0.00 | 0.15 | 0.00 | 94 | 1018.1 |
| 20260831075556 | 16 | 303 | 0.0 | 0.0 | 0.00 | 0.15 | 0.00 | 94 | 1018.1 |
| 20260831075055 | 16 | 303 | 0.0 | 0.0 | 0.00 | 0.15 | 0.00 | 94 | 1018.1 |
| 20260831074555 | 16 | 303 | 0.0 | 0.0 | 0.00 | 0.15 | 0.00 | 94 | 1018.0 |
| 20260831074056 | 16 | 303 | 0.0 | 0.0 | 0.00 | 0.15 | 0.00 | 94 | 1018.1 |
| 20260831073555 | 16 | 303 | 0.0 | 3.2 | 0.00 | 0.15 | 0.00 | 94 | 1018.1 |
| 20260831073055 | 16 | 303 | 0.0 | 3.2 | 0.00 | 0.15 | 0.00 | 94 | 1018.1 |
| 20260831072554 | 16 | 303 | 0.0 | 3.2 | 0.00 | 0.15 | 0.00 | 94 | 1018.1 |
| 20260831072053 | 16 | 302 | 0.0 | 3.2 | 0.00 | 0.15 | 0.00 | 94 | 1018.1 |
| 20260831071555 | 16 | 302 | 0.0 | 4.8 | 0.00 | 0.15 | 0.00 | 94 | 1018.1 |
| 20260831071053 | 16 | 302 | 0.0 | 6.4 | 0.00 | 0.15 | 0.00 | 94 | 1018.1 |
| 20260831070553 | 16 | 303 | 0.0 | 6.4 | 0.00 | 0.15 | 0.00 | 94 | 1018.0 |
| 20260831070053 | 16 | 302 | 0.0 | 3.2 | 0.00 | 0.15 | 0.00 | 94 | 1018.0 |
| 20260831065552 | 16 | 302 | 0.0 | 4.8 | 0.00 | 0.15 | 0.00 | 94 | 1017.9 |
| 20260831065052 | 16 | 302 | 1.6 | 4.8 | 0.00 | 0.15 | 0.00 | 94 | 1017.8 |
| 20260831064552 | 16 | 309 | 0.0 | 0.0 | 0.00 | 0.15 | 0.00 | 94 | 1017.8 |
| 20260831064051 | 16 | 309 | 0.0 | 0.0 | 0.00 | 0.15 | 0.00 | 94 | 1017.9 |
| 20260831063551 | 16 | 309 | 0.0 | 0.0 | 0.00 | 0.15 | 0.00 | 94 | 1017.8 |
| 20260831063107 | 16 | 309 | 0.0 | 0.0 | 0.00 | 0.15 | 0.00 | 94 | 1017.9 |
| 20260831062550 | 16 | 309 | 0.0 | 0.0 | 0.00 | 0.15 | 0.00 | 94 | 1018.0 |
| 20260831062052 | 16 | 309 | 0.0 | 0.0 | 0.00 | 0.15 | 0.00 | 94 | 1018.0 |
| 20260831061550 | 16 | 309 | 0.0 | 0.0 | 0.00 | 0.15 | 0.00 | 94 | 1018.1 |
| 20260831061048 | 16 | 309 | 0.0 | 0.0 | 0.00 | 0.15 | 0.00 | 94 | 1018.1 |
| 20260831060548 | 16 | 309 | 0.0 | 0.0 | 0.00 | 0.15 | 0.00 | 94 | 1018.2 |
| 20260831060049 | 16 | 309 | 0.0 | 0.0 | 0.00 | 0.15 | 0.00 | 94 | 1018.2 |
| 20260831055547 | 16 | 309 | 0.0 | 0.0 | 0.00 | 0.15 | 0.00 | 94 | 1018.3 |
| 20260831055047 | 16 | 310 | 0.0 | 0.0 | 0.00 | 0.15 | 0.00 | 94 | 1018.3 |
| 20260831054547 | 16 | 310 | 0.0 | 0.0 | 0.00 | 0.15 | 0.00 | 94 | 1018.4 |
| 20260831054047 | 16 | 310 | 0.0 | 0.0 | 0.00 | 0.15 | 0.00 | 94 | 1018.4 |
| 20260831053547 | 16 | 310 | 0.0 | 0.0 | 0.00 | 0.00 | 0.00 | 94 | 1018.5 |
| 20260831053122 | 16 | 310 | 0.0 | 0.0 | 0.00 | 0.15 | 0.00 | 94 | 1018.5 |
| 20260831052548 | 16 | 310 | 0.0 | 0.0 | 0.00 | 0.15 | 0.00 | 94 | 1018.5 |
| 20260831052046 | 16 | 310 | 0.0 | 0.0 | 0.00 | 0.15 | 0.00 | 94 | 1018.4 |
| 20260831051546 | 16 | 310 | 0.0 | 0.0 | 0.00 | 0.15 | 0.00 | 94 | 1018.4 |
| 20260831051045 | 16 | 310 | 0.0 | 0.0 | 0.00 | 0.15 | 0.00 | 94 | 1018.3 |
| 20260831050545 | 16 | 310 | 0.0 | 1.6 | 0.00 | 0.15 | 0.00 | 94 | 1018.2 |
| 20260831050044 | 16 | 310 | 0.0 | 4.8 | 0.00 | 0.15 | 0.00 | 94 | 1018.3 |
| 20260831045544 | 16 | 310 | 0.0 | 4.8 | 0.00 | 0.15 | 0.00 | 94 | 1018.3 |
| 20260831045043 | 16 | 309 | 0.0 | 4.8 | 0.00 | 0.15 | 0.00 | 93 | 1018.4 |
| 20260831044635 | 16 | 309 | 1.6 | 6.4 | 0.00 | 0.15 | 0.00 | 93 | 1018.4 |
| 20260831044042 | 16 | 309 | 3.2 | 6.4 | 0.00 | 0.15 | 0.00 | 93 | 1018.5 |
| 20260831043542 | 16 | 284 | 1.6 | 4.8 | 0.00 | 0.15 | 0.00 | 93 | 1018.7 |
| 20260831043042 | 16 | 304 | 1.6 | 4.8 | 0.03 | 0.15 | 0.00 | 93 | 1018.7 |
| 20260831042541 | 16 | 303 | 1.6 | 6.4 | 0.03 | 0.15 | 0.00 | 94 | 1018.7 |
| 20260831042041 | 16 | 291 | 1.6 | 6.4 | 0.05 | 0.15 | 0.00 | 93 | 1018.6 |
| 20260831041544 | 16 | 286 | 0.0 | 3.2 | 0.05 | 0.15 | 0.00 | 93 | 1018.7 |
| 20260831041040 | 16 | 285 | 0.0 | 0.0 | 0.05 | 0.15 | 0.00 | 93 | 1018.6 |
| 20260831040540 | 16 | 284 | 0.0 | 0.0 | 0.05 | 0.15 | 0.00 | 93 | 1018.6 |
| 20260831040039 | 16 | 284 | 0.0 | 3.2 | 0.05 | 0.15 | 0.00 | 93 | 1018.7 |
| 20260831035539 | 16 | 284 | 0.0 | 6.4 | 0.05 | 0.15 | 0.15 | 93 | 1018.7 |
| 20260831035039 | 16 | 284 | 0.0 | 6.4 | 0.08 | 0.15 | 0.15 | 93 | 1018.8 |
| 20260831034538 | 16 | 302 | 0.0 | 4.8 | 0.08 | 0.15 | 0.15 | 93 | 1018.8 |
| 20260831034038 | 16 | 298 | 0.0 | 6.4 | 0.08 | 0.15 | 0.15 | 93 | 1018.8 |
| 20260831033538 | 16 | 298 | 1.6 | 6.4 | 0.08 | 0.15 | 0.15 | 93 | 1018.7 |
| 20260831033052 | 16 | 273 | 0.0 | 0.0 | 0.05 | 0.13 | 0.13 | 93 | 1018.7 |
| 20260831032540 | 16 | 270 | 0.0 | 6.4 | 0.05 | 0.13 | 0.13 | 93 | 1018.7 |
| 20260831032036 | 16 | 270 | 0.0 | 6.4 | 0.03 | 0.10 | 0.10 | 93 | 1018.8 |
| 20260831031538 | 16 | 290 | 0.0 | 0.0 | 0.03 | 0.10 | 0.10 | 93 | 1018.8 |
| 20260831031036 | 16 | 360 | 0.0 | 0.0 | 0.03 | 0.10 | 0.10 | 93 | 1018.7 |
| 20260831030536 | 16 | 360 | 0.0 | 1.6 | 0.03 | 0.10 | 0.10 | 93 | 1018.6 |
| 20260831030036 | 16 | 296 | 0.0 | 4.8 | 0.03 | 0.10 | 0.10 | 93 | 1018.6 |
| 20260831025536 | 16 | 300 | 0.0 | 4.8 | 0.03 | 0.10 | 0.10 | 93 | 1018.7 |
| 20260831025037 | 16 | 293 | 0.0 | 3.2 | 0.00 | 0.08 | 0.08 | 93 | 1018.6 |
| 20260831024536 | 16 | 293 | 0.0 | 6.4 | 0.00 | 0.08 | 0.08 | 93 | 1018.6 |
| 20260831024038 | 16 | 293 | 1.6 | 8.0 | 0.00 | 0.08 | 0.08 | 93 | 1018.6 |
| 20260831023535 | 16 | 281 | 1.6 | 8.0 | 0.00 | 0.08 | 0.08 | 93 | 1018.6 |
| 20260831023035 | 16 | 264 | 0.0 | 9.7 | 0.00 | 0.08 | 0.08 | 93 | 1018.5 |
| 20260831022536 | 16 | 271 | 1.6 | 9.7 | 0.00 | 0.08 | 0.08 | 93 | 1018.4 |
| 20260831022035 | 16 | 298 | 3.2 | 8.0 | 0.00 | 0.08 | 0.08 | 93 | 1018.4 |
| 20260831021535 | 16 | 294 | 1.6 | 9.7 | 0.00 | 0.08 | 0.08 | 93 | 1018.5 |
| 20260831021035 | 16 | 290 | 0.0 | 8.0 | 0.00 | 0.08 | 0.08 | 93 | 1018.4 |
| 20260831020535 | 16 | 288 | 1.6 | 8.0 | 0.00 | 0.08 | 0.08 | 93 | 1018.4 |
| 20260831020035 | 16 | 293 | 3.2 | 9.7 | 0.00 | 0.08 | 0.08 | 93 | 1018.4 |
| 20260831015534 | 16 | 297 | 0.0 | 11.3 | 0.00 | 0.08 | 0.08 | 93 | 1018.3 |
| 20260831015034 | 16 | 304 | 3.2 | 11.3 | 0.00 | 0.08 | 0.08 | 93 | 1018.4 |
| 20260831014534 | 16 | 259 | 0.0 | 6.4 | 0.00 | 0.08 | 0.08 | 93 | 1018.4 |
| 20260831014034 | 16 | 269 | 1.6 | 8.0 | 0.00 | 0.08 | 0.08 | 93 | 1018.4 |
| 20260831013533 | 16 | 252 | 1.6 | 8.0 | 0.00 | 0.08 | 0.08 | 93 | 1018.5 |
| 20260831013036 | 16 | 249 | 0.0 | 6.4 | 0.00 | 0.08 | 0.08 | 93 | 1018.5 |
| 20260831012534 | 16 | 299 | 0.0 | 8.0 | 0.00 | 0.08 | 0.08 | 93 | 1018.5 |
| 20260831012034 | 16 | 304 | 0.0 | 8.0 | 0.00 | 0.08 | 0.08 | 93 | 1018.5 |
| 20260831011533 | 16 | 302 | 1.6 | 6.4 | 0.00 | 0.08 | 0.08 | 93 | 1018.5 |
| 20260831011032 | 16 | 267 | 1.6 | 8.0 | 0.00 | 0.08 | 0.08 | 93 | 1018.4 |
| 20260831010532 | 16 | 290 | 0.0 | 12.9 | 0.00 | 0.08 | 0.08 | 93 | 1018.3 |
| 20260831010053 | 16 | 306 | 1.6 | 12.9 | 0.00 | 0.08 | 0.08 | 93 | 1018.3 |
| 20260831005532 | 16 | 360 | 3.2 | 6.4 | 0.00 | 0.08 | 0.08 | 93 | 1018.2 |
| 20260831005032 | 16 | 298 | 1.6 | 8.0 | 0.00 | 0.08 | 0.08 | 93 | 1018.2 |
| 20260831004532 | 16 | 287 | 1.6 | 9.7 | 0.00 | 0.08 | 0.08 | 93 | 1018.0 |
| 20260831004032 | 16 | 292 | 3.2 | 9.7 | 0.00 | 0.08 | 0.08 | 92 | 1018.0 |
| 20260831003531 | 16 | 288 | 3.2 | 8.0 | 0.00 | 0.08 | 0.08 | 92 | 1017.9 |
| 20260831003034 | 16 | 360 | 1.6 | 6.4 | 0.00 | 0.08 | 0.08 | 92 | 1017.8 |
| 20260831002531 | 16 | 288 | 1.6 | 8.0 | 0.00 | 0.08 | 0.08 | 92 | 1017.7 |
| 20260831002031 | 16 | 296 | 3.2 | 12.9 | 0.00 | 0.08 | 0.08 | 92 | 1017.5 |
| 20260831001531 | 16 | 297 | 1.6 | 12.9 | 0.00 | 0.08 | 0.08 | 92 | 1017.4 |
| 20260831001031 | 16 | 282 | 1.6 | 6.4 | 0.00 | 0.08 | 0.08 | 92 | 1017.3 |
| 20260831000530 | 16 | 275 | 1.6 | 8.0 | 0.00 | 0.08 | 0.08 | 92 | 1017.2 |
| 20260831000030 | 16 | 266 | 3.2 | 11.3 | 0.00 | 0.08 | 0.08 | 92 | 1017.2 |
| 20260830235530 | 16 | 298 | 3.2 | 11.3 | 0.00 | 0.08 | 0.08 | 92 | 1017.0 |
| 20260830235029 | 16 | 299 | 0.0 | 8.0 | 0.00 | 0.08 | 0.08 | 92 | 1017.0 |
| 20260830234530 | 16 | 280 | 1.6 | 8.0 | 0.00 | 0.08 | 0.08 | 92 | 1017.0 |
| 20260830234029 | 16 | 360 | 1.6 | 8.0 | 0.00 | 0.08 | 0.08 | 92 | 1017.0 |
| 20260830233529 | 16 | 301 | 0.0 | 4.8 | 0.00 | 0.08 | 0.08 | 92 | 1016.9 |
| 20260830233036 | 16 | 360 | 1.6 | 6.4 | 0.00 | 0.08 | 0.08 | 92 | 1016.8 |
| 20260830232529 | 16 | 300 | 0.0 | 6.4 | 0.00 | 0.08 | 0.08 | 92 | 1016.8 |
| 20260830232028 | 16 | 308 | 0.0 | 4.8 | 0.00 | 0.08 | 0.08 | 92 | 1016.7 |
| 20260830231529 | 16 | 238 | 1.6 | 4.8 | 0.00 | 0.08 | 0.08 | 92 | 1016.7 |
| 20260830231028 | 16 | 207 | 0.0 | 3.2 | 0.00 | 0.08 | 0.08 | 92 | 1016.7 |
| 20260830230528 | 16 | 207 | 0.0 | 4.8 | 0.00 | 0.08 | 0.08 | 92 | 1016.7 |
| 20260830230028 | 16 | 287 | 0.0 | 4.8 | 0.00 | 0.08 | 0.08 | 92 | 1016.7 |
| 20260830225528 | 16 | 261 | 0.0 | 4.8 | 0.00 | 0.08 | 0.08 | 92 | 1016.7 |
| 20260830225028 | 16 | 261 | 1.6 | 4.8 | 0.00 | 0.08 | 0.08 | 92 | 1016.7 |
| 20260830224528 | 16 | 281 | 0.0 | 4.8 | 0.00 | 0.08 | 0.08 | 92 | 1016.7 |
| 20260830224028 | 16 | 269 | 0.0 | 0.0 | 0.00 | 0.08 | 0.08 | 92 | 1016.7 |
| 20260830223528 | 16 | 293 | 0.0 | 4.8 | 0.00 | 0.08 | 0.08 | 92 | 1016.8 |
| 20260830223033 | 16 | 360 | 0.0 | 6.4 | 0.03 | 0.08 | 0.08 | 92 | 1016.7 |
| 20260830222527 | 16 | 292 | 1.6 | 6.4 | 0.03 | 0.08 | 0.08 | 92 | 1016.7 |
| 20260830222027 | 16 | 360 | 0.0 | 3.2 | 0.03 | 0.08 | 0.08 | 92 | 1016.7 |
| 20260830221527 | 16 | 360 | 0.0 | 4.8 | 0.03 | 0.08 | 0.08 | 92 | 1016.8 |
| 20260830221030 | 16 | 360 | 1.6 | 4.8 | 0.03 | 0.08 | 0.08 | 91 | 1016.8 |
| 20260830220526 | 16 | 360 | 0.0 | 0.0 | 0.03 | 0.08 | 0.08 | 91 | 1016.9 |
| 20260830220026 | 16 | 360 | 0.0 | 0.0 | 0.03 | 0.08 | 0.08 | 91 | 1016.9 |
| 20260830215526 | 16 | 360 | 0.0 | 0.0 | 0.03 | 0.08 | 0.08 | 91 | 1016.9 |
| 20260830215025 | 16 | 304 | 0.0 | 0.0 | 0.05 | 0.08 | 0.08 | 91 | 1017.0 |
| 20260830214526 | 16 | 305 | 0.0 | 0.0 | 0.05 | 0.08 | 0.08 | 91 | 1016.9 |
| 20260830214025 | 16 | 305 | 0.0 | 0.0 | 0.05 | 0.08 | 0.08 | 91 | 1017.0 |
| 20260830213529 | 16 | 305 | 0.0 | 1.6 | 0.05 | 0.08 | 0.08 | 91 | 1016.9 |
| 20260830213045 | 16 | 305 | 0.0 | 4.8 | 0.03 | 0.05 | 0.05 | 91 | 1016.9 |
| 20260830212525 | 16 | 305 | 1.6 | 6.4 | 0.03 | 0.05 | 0.05 | 91 | 1017.0 |
| 20260830212025 | 16 | 305 | 3.2 | 6.4 | 0.03 | 0.05 | 0.05 | 91 | 1017.0 |
| 20260830211525 | 16 | 290 | 0.0 | 6.4 | 0.05 | 0.05 | 0.05 | 90 | 1017.0 |
| 20260830211025 | 16 | 291 | 1.6 | 6.4 | 0.05 | 0.05 | 0.05 | 90 | 1017.0 |
| 20260830210525 | 16 | 273 | 1.6 | 8.0 | 0.05 | 0.05 | 0.05 | 90 | 1017.1 |
| 20260830210026 | 16 | 302 | 3.2 | 14.5 | 0.05 | 0.05 | 0.05 | 90 | 1017.2 |
| 20260830205527 | 16 | 259 | 3.2 | 14.5 | 0.05 | 0.05 | 0.05 | 89 | 1017.2 |
| 20260830205024 | 16 | 306 | 4.8 | 14.5 | 0.03 | 0.03 | 0.03 | 89 | 1017.3 |
| 20260830204536 | 17 | 294 | 6.4 | 14.5 | 0.03 | 0.03 | 0.03 | 89 | 1017.3 |
| 20260830204023 | 17 | 282 | 6.4 | 14.5 | 0.03 | 0.03 | 0.03 | 88 | 1017.2 |
| 20260830203524 | 17 | 287 | 3.2 | 9.7 | 0.03 | 0.03 | 0.03 | 87 | 1017.2 |
| 20260830203023 | 17 | 293 | 4.8 | 16.1 | 0.03 | 0.03 | 0.03 | 86 | 1017.2 |
| 20260830202522 | 17 | 360 | 4.8 | 17.7 | 0.03 | 0.03 | 0.03 | 85 | 1017.2 |
| 20260830202022 | 18 | 360 | 9.7 | 17.7 | 0.03 | 0.03 | 0.03 | 83 | 1017.2 |
| 20260830201520 | 18 | 288 | 6.4 | 20.9 | 0.00 | 0.00 | 0.00 | 81 | 1017.1 |
| 20260830201019 | 18 | 315 | 9.7 | 20.9 | 0.00 | 0.00 | 0.00 | 78 | 1017.0 |
| 20260830200519 | 19 | 302 | 9.7 | 20.9 | 0.00 | 0.00 | 0.00 | 75 | 1016.9 |
| 20260830200019 | 20 | 295 | 12.9 | 20.9 | 0.00 | 0.00 | 0.00 | 71 | 1016.8 |
| 20260830195519 | 20 | 313 | 8.0 | 16.1 | 0.00 | 0.00 | 0.00 | 69 | 1016.8 |
| 20260830195019 | 20 | 297 | 1.6 | 14.5 | 0.00 | 0.00 | 0.00 | 68 | 1016.7 |
| 20260830194521 | 20 | 254 | 4.8 | 14.5 | 0.00 | 0.00 | 0.00 | 67 | 1016.7 |
| 20260830194020 | 20 | 277 | 6.4 | 12.9 | 0.00 | 0.00 | 0.00 | 66 | 1016.7 |
| 20260830193517 | 20 | 275 | 4.8 | 14.5 | 0.00 | 0.00 | 0.00 | 66 | 1016.8 |
| 20260830193029 | 20 | 310 | 4.8 | 12.9 | 0.00 | 0.00 | 0.00 | 67 | 1016.7 |
| 20260830192517 | 20 | 300 | 4.8 | 14.5 | 0.00 | 0.00 | 0.00 | 67 | 1016.7 |
| 20260830192018 | 20 | 279 | 6.4 | 14.5 | 0.00 | 0.00 | 0.00 | 65 | 1016.7 |
| 20260830191528 | 21 | 318 | 6.4 | 12.9 | 0.00 | 0.00 | 0.00 | 65 | 1016.7 |
| 20260830191017 | 21 | 291 | 4.8 | 9.7 | 0.00 | 0.00 | 0.00 | 65 | 1016.7 |
| 20260830190516 | 21 | 321 | 4.8 | 9.7 | 0.00 | 0.00 | 0.00 | 63 | 1016.7 |
| 20260830190016 | 21 | 303 | 3.2 | 8.0 | 0.00 | 0.00 | 0.00 | 62 | 1016.8 |
| 20260830185517 | 21 | 294 | 0.0 | 12.9 | 0.00 | 0.00 | 0.00 | 62 | 1016.8 |
| 20260830185019 | 21 | 295 | 4.8 | 14.5 | 0.00 | 0.00 | 0.00 | 61 | 1016.8 |
| 20260830184519 | 22 | 295 | 6.4 | 16.1 | 0.00 | 0.00 | 0.00 | 60 | 1016.9 |
| 20260830184014 | 22 | 298 | 8.0 | 16.1 | 0.00 | 0.00 | 0.00 | 58 | 1016.9 |
| 20260830183514 | 22 | 309 | 1.6 | 14.5 | 0.00 | 0.00 | 0.00 | 63 | 1016.9 |
| 20260830183014 | 22 | 302 | 4.8 | 8.0 | 0.00 | 0.00 | 0.00 | 60 | 1016.9 |
| 20260830182514 | 22 | 256 | 1.6 | 6.4 | 0.00 | 0.00 | 0.00 | 62 | 1016.9 |
| 20260830182013 | 22 | 322 | 0.0 | 4.8 | 0.00 | 0.00 | 0.00 | 60 | 1016.9 |
| 20260830181513 | 21 | 244 | 1.6 | 4.8 | 0.00 | 0.00 | 0.00 | 62 | 1017.0 |
| 20260830181012 | 22 | 200 | 0.0 | 8.0 | 0.00 | 0.00 | 0.00 | 61 | 1017.1 |
| 20260830180511 | 22 | 288 | 1.6 | 8.0 | 0.00 | 0.00 | 0.00 | 61 | 1017.1 |
| 20260830180015 | 22 | 179 | 3.2 | 6.4 | 0.00 | 0.00 | 0.00 | 60 | 1017.0 |
| 20260830175511 | 21 | 194 | 0.0 | 4.8 | 0.00 | 0.00 | 0.00 | 60 | 1017.0 |
| 20260830175012 | 21 | 231 | 0.0 | 6.4 | 0.00 | 0.00 | 0.00 | 61 | 1017.1 |
| 20260830174510 | 21 | 290 | 1.6 | 9.7 | 0.00 | 0.00 | 0.00 | 61 | 1017.0 |
| 20260830174008 | 21 | 316 | 3.2 | 9.7 | 0.00 | 0.00 | 0.00 | 61 | 1017.1 |
| 20260830173508 | 21 | 220 | 1.6 | 6.4 | 0.00 | 0.00 | 0.00 | 64 | 1017.0 |
| 20260830173006 | 21 | 266 | 0.0 | 6.4 | 0.00 | 0.00 | 0.00 | 61 | 1017.1 |